Wind_Speed
26 25 22 20 18 17 16 16 15 14 12 12 11 9 9 9 9 10 10 12 11 16 17 16 15 15 14 14 13 14 15 17 19 18 16 16 15 14 17 12 13 14 16
30 26 23 21 18 18 17 16 15 14 13 11 7 5 9 9 9 11 11 13 12 15 16 15 15 15 13 13 13 15 17 18 19 19 17 16 15 12 12 13 13 12 12
32 27 23 21 21 17 16 17 17 13 11 9 6 6 9 9 10 10 11 13 12 16 17 15 14 14 13 13 13 16 17 14 12 11 16 15 12 11 11 11 12 11 9
32 28 25 21 20 17 17 17 17 14 11 9 9 7 10 11 12 16 15 13 14 17 15 13 13 13 13 13 15 17 14 13 14 13 12 11 12 12 8 11 11 12 8
28 27 23 19 18 17 18 18 16 12 10 9 9 11 12 13 14 17 17 18 16 14 13 12 13 13 13 14 16 16 14 14 12 12 11 10 12 16 15 10 10 12 18
28 22 21 19 19 19 19 17 14 11 10 10 10 13 14 14 13 14 15 16 15 13 11 12 12 13 12 12 13 14 14 13 10 10 9 9 13 13 15 19 18 17 16
28 24 19 21 19 18 18 16 14 12 9 7 10 13 14 14 12 12 12 13 12 10 9 11 12 11 10 11 11 12 12 10 9 10 9 8 11 11 12 12 10 9 11
30 27 21 18 18 17 16 16 16 13 8 7 10 12 13 13 12 12 11 11 10 9 10 11 11 10 9 9 10 12 8 6 11 7 5 7 11 11 11 11 11 11 9
27 24 21 18 15 13 15 16 15 11 9 7 9 11 12 13 13 13 12 12 10 10 11 10 9 8 8 8 9 11 9 11 7 6 6 8 12 10 10 11 11 11 10
23 20 22 19 17 16 14 17 15 13 12 8 10 8 9 10 12 13 13 12 12 11 11 9 8 7 7 8 9 12 11 8 5 4 5 9 11 8 8 9 10 10 10
24 20 23 22 19 17 16 15 15 15 15 12 12 9 8 10 11 12 12 12 12 11 10 9 7 6 6 7 9 12 9 7 6 5 5 8 10 8 7 7 8 9 10
24 21 19 20 20 18 17 17 17 17 17 16 16 13 9 10 11 11 11 11 12 12 10 9 8 7 8 7 8 10 8 6 5 6 8 9 10 8 8 7 9 9 9
16 16 21 21 20 21 18 15 17 18 19 18 19 16 11 12 13 13 12 12 14 14 14 12 11 9 10 9 8 9 6 7 6 8 9 9 9 10 8 8 8 9 9
12 10 12 24 23 22 19 18 14 16 19 21 19 19 17 16 19 18 16 15 15 15 15 14 12 11 12 10 11 9 10 10 10 11 11 10 10 11 10 9 10 9 9
13 14 12 16 23 22 20 16 14 16 17 20 19 20 20 20 21 26 20 16 14 16 17 16 13 11 14 13 12 12 12 11 12 12 14 13 12 11 10 10 11 10 9
19 14 17 15 18 18 22 19 17 20 20 20 21 20 19 20 23 25 22 21 18 16 16 15 16 16 17 16 15 15 13 12 14 13 16 15 14 13 12 11 12 11 11
22 20 18 21 21 20 19 17 21 19 21 22 20 18 19 20 23 23 21 22 23 22 19 19 20 21 20 19 17 17 17 15 16 16 18 17 16 15 14 14 14 13 12
17 22 22 22 22 27 28 26 24 18 18 15 22 21 23 24 25 23 26 26 24 24 24 20 22 23 23 22 20 20 18 18 17 18 18 18 18 17 17 16 17 16 15
12 10 16 24 22 22 21 20 29 30 26 21 19 23 25 24 25 28 28 27 27 25 29 27 25 28 26 25 23 21 21 21 21 20 20 21 20 19 18 20 21 20 19
5 10 11 11 17 20 21 22 23 26 25 28 30 26 23 21 26 29 31 33 28 28 27 30 33 29 30 28 23 22 22 23 23 24 23 24 24 22 20 21 23 23 23
4 3 2 3 2 6 18 21 28 30 29 27 26 27 32 27 21 26 32 33 34 33 35 32 34 33 32 30 21 19 20 23 26 28 27 25 26 25 24 25 24 25 26
9 4 3 2 6 6 7 7 5 13 21 31 29 29 29 27 30 24 28 33 34 35 34 35 34 33 33 30 16 5 2 10 26 29 29 31 30 29 29 28 27 26 26
9 8 6 6 8 9 10 12 13 10 4 9 20 28 30 30 29 30 31 25 31 35 38 35 35 37 30 32 33 14 2 6 3 20 36 33 34 33 33 32 29 29 27
7 6 6 6 7 7 9 11 12 13 15 14 12 17 24 25 26 27 26 27 32 32 35 39 39 36 34 29 31 37 25 6 4 2 12 33 31 33 34 33 32 30 28
4 4 6 6 6 7 6 8 8 10 13 15 14 16 16 17 23 25 24 25 27 25 33 35 34 34 35 30 30 26 30 19 11 3 4 5 27 31 32 34 32 31 30
5 4 5 6 7 7 8 6 7 8 10 12 13 15 17 15 14 20 23 26 26 25 23 28 27 30 32 35 29 35 29 16 22 7 2 3 6 15 30 31 32 32 32
Wind_Direction
154 154 153 152 146 140 135 130 125 123 121 124 118 107 101 90 82 80 88 98 92 107 103 91 90 93 93 92 92 91 90 90 81 77 80 82 79 76 78 84 86 74 80
157 152 153 152 143 139 135 132 126 124 117 112 111 124 100 94 90 91 94 109 103 109 105 101 97 96 96 97 96 96 100 98 90 82 78 71 78 78 83 83 84 81 82
155 151 151 154 147 145 139 135 130 129 127 125 113 127 107 100 100 105 115 115 111 117 109 100 96 95 95 95 99 105 102 94 90 84 80 66 69 76 84 83 79 74 77
156 153 153 154 152 150 144 140 138 138 135 132 136 134 111 109 99 97 119 118 114 118 113 102 99 100 99 98 101 110 101 87 86 89 99 78 65 64 87 92 81 79 57
152 161 158 161 158 153 150 146 142 145 144 132 125 125 120 118 108 105 110 118 117 120 113 104 105 106 103 102 107 113 101 93 89 97 92 67 76 71 80 100 93 81 66
150 156 158 164 159 155 152 149 145 136 126 116 121 125 127 127 121 118 121 122 120 120 112 111 112 111 108 104 110 112 100 92 99 97 94 81 91 83 78 80 84 76 70
151 150 154 158 158 156 153 147 140 139 137 124 126 131 134 137 143 139 133 135 130 129 123 121 120 118 114 112 114 121 112 96 109 103 83 87 103 90 86 80 88 79 68
152 151 153 158 156 155 155 151 153 153 144 141 136 137 140 145 151 151 150 146 141 138 132 130 129 128 126 125 123 134 120 79 118 99 67 89 112 96 91 86 78 78 74
151 154 155 156 162 166 162 159 161 158 164 161 150 150 151 157 158 154 151 153 150 145 141 139 135 133 134 134 135 141 118 104 113 103 113 107 116 103 96 89 85 81 78
149 153 158 159 168 171 164 168 168 168 170 175 160 162 160 156 158 163 159 157 156 156 155 150 146 142 143 142 143 145 133 122 128 127 110 128 128 114 104 96 95 92 90
151 153 163 165 172 177 178 180 181 180 180 181 177 174 175 174 170 171 167 162 162 169 170 165 161 157 158 155 152 152 146 142 165 177 175 153 142 128 120 112 107 108 102
157 164 162 171 179 185 192 202 198 196 194 193 191 189 190 190 185 179 176 174 180 181 189 189 182 177 170 163 161 160 158 155 173 196 173 170 158 144 137 128 127 121 117
152 170 181 179 178 184 189 187 196 202 201 201 199 199 199 201 191 193 189 194 201 196 203 205 200 195 185 176 169 176 184 178 212 210 189 190 173 155 151 144 142 136 131
197 178 173 193 182 188 194 191 196 195 200 200 206 212 210 213 214 208 209 212 217 218 218 223 223 216 204 205 202 204 200 211 224 220 208 209 194 169 162 158 155 150 147
202 202 175 170 185 187 196 196 203 199 201 206 211 214 219 222 222 215 213 219 225 221 225 228 227 219 213 218 217 222 217 217 224 219 214 208 208 194 177 171 167 163 162
196 198 207 189 183 192 200 202 208 217 212 214 218 223 219 215 221 218 220 223 229 227 223 226 224 224 224 221 235 225 223 223 227 222 211 212 214 213 196 183 182 178 173
198 202 205 211 206 205 204 199 207 218 219 211 221 227 220 219 220 220 226 233 238 230 230 231 234 235 218 225 234 227 229 223 223 228 215 216 216 222 217 192 191 192 187
216 215 219 209 209 221 222 217 215 219 215 211 225 230 227 229 231 229 229 236 242 229 224 222 230 218 228 233 229 229 230 228 224 231 223 220 221 222 218 207 197 197 196
237 193 208 218 224 222 224 221 223 227 227 219 212 222 230 237 233 234 235 235 238 236 224 231 233 231 228 225 224 226 229 230 229 225 228 225 222 225 225 216 207 201 200
222 238 227 215 218 228 235 232 229 226 228 231 229 225 224 233 241 237 236 238 237 237 237 236 233 230 229 227 221 226 234 233 231 228 226 226 224 222 224 222 217 212 209
77 51 9 298 274 207 219 220 230 230 238 246 246 238 236 235 238 247 244 241 238 236 240 240 233 233 228 223 212 226 233 232 231 233 231 226 223 224 222 217 223 221 218
64 39 339 285 264 262 262 267 245 235 245 249 251 251 247 246 247 243 250 249 243 238 239 240 240 227 227 217 201 149 231 247 235 230 228 228 224 222 222 221 221 224 222
40 21 359 329 301 285 283 276 269 280 271 257 253 254 254 253 259 257 253 253 253 247 242 243 243 230 223 216 214 190 144 224 210 230 230 227 227 222 221 225 224 221 224
34 1 1 1 355 341 331 307 295 286 287 279 279 270 264 265 266 265 261 264 256 259 251 245 245 246 226 217 214 219 224 178 191 273 232 229 227 226 224 223 226 226 227
61 26 4 360 8 11 341 339 329 303 290 288 283 281 286 285 269 265 264 260 257 266 259 255 251 245 241 230 214 223 229 228 229 160 239 239 226 228 228 225 227 232 227
94 47 24 19 15 7 6 351 343 330 315 308 304 299 286 294 297 269 269 269 267 261 271 262 264 260 249 242 232 225 219 217 230 211 231 250 236 224 227 226 220 226 228
Height
808 810 814 817 819 820 822 824 826 828 830 832 833 834 835 835 836 836 836 837 838 838 840 841 842 842 842 843 843 843 844 845 845 845 845 845 846 846 845 845 845 845 845
806 811 814 817 819 821 823 825 827 830 832 834 834 836 836 837 837 837 837 838 839 841 842 842 843 843 843 844 844 845 845 846 846 847 847 847 847 847 847 846 846 847 847
806 811 814 817 819 822 824 826 829 832 834 835 836 836 837 837 838 838 839 840 841 842 843 844 845 845 845 845 845 846 847 848 848 849 849 849 848 848 848 848 849 849 849
806 811 814 817 820 822 825 828 830 833 834 836 836 837 838 839 839 839 840 841 842 843 844 845 845 846 846 847 847 848 849 850 850 849 850 851 850 850 849 850 850 850 849
807 811 815 817 820 823 826 829 831 832 834 835 836 837 839 840 841 841 842 843 844 845 845 846 847 847 848 848 849 849 850 851 852 852 852 852 852 852 851 851 852 852 850
808 812 815 818 821 824 826 829 831 832 834 835 836 838 840 841 842 842 843 844 845 846 846 847 848 848 849 850 851 852 852 852 852 853 853 853 853 853 853 853 853 853 852
809 813 817 819 822 824 827 829 830 832 834 836 837 839 840 842 842 843 844 845 846 847 847 848 848 850 850 851 852 853 853 854 854 854 854 854 855 855 855 855 854 854 854
809 813 817 821 823 825 827 829 830 832 834 836 838 839 841 842 843 843 844 845 846 847 848 848 849 849 851 851 852 853 854 854 854 855 855 855 855 856 856 855 854 854 854
810 814 817 820 824 826 827 829 830 832 834 836 837 839 840 841 842 843 844 845 847 848 849 849 850 850 851 852 852 853 854 854 854 854 855 855 856 856 857 856 855 855 855
811 813 817 820 823 825 827 828 830 832 834 835 837 838 839 840 842 843 844 845 846 848 848 849 850 850 851 852 852 852 853 853 854 854 855 856 857 857 858 857 856 855 855
811 813 816 819 822 825 826 828 829 831 833 835 836 837 838 840 842 843 843 844 846 847 848 848 849 849 850 851 852 852 852 853 852 853 854 855 856 858 858 858 857 856 856
810 813 814 817 820 822 825 826 828 830 831 833 834 836 837 839 841 843 843 844 845 846 847 847 847 848 849 850 851 852 852 853 853 852 852 854 855 856 857 858 858 857 857
810 813 813 815 817 819 822 824 826 828 830 831 833 835 837 838 840 841 842 843 844 845 846 846 846 847 848 849 850 851 851 852 852 853 852 853 854 854 855 856 857 857 857
808 810 813 814 815 817 820 823 824 826 827 829 831 833 835 836 838 839 840 841 843 845 845 846 846 846 847 847 848 848 848 850 851 852 852 852 853 854 854 855 855 856 857
806 809 810 813 815 816 818 821 822 824 825 826 829 831 833 834 835 836 838 839 840 841 843 844 845 845 846 847 847 847 847 848 848 849 851 851 851 853 854 855 855 855 857
805 807 810 812 814 816 817 819 820 821 822 823 826 828 830 832 833 834 835 836 837 838 840 841 841 843 845 846 846 847 847 848 847 848 849 849 850 851 852 853 855 854 855
801 803 806 808 811 813 815 816 818 820 820 822 823 824 827 829 831 832 833 833 834 836 837 838 840 840 841 842 843 844 845 845 846 845 845 846 847 848 849 850 852 854 854
800 801 802 804 806 809 811 813 815 816 818 819 821 823 825 826 827 828 830 830 831 833 834 835 836 837 838 839 840 842 843 844 844 844 843 844 844 844 846 847 848 850 851
798 799 800 802 804 805 808 809 811 813 814 815 817 818 820 820 822 824 824 825 827 828 830 831 832 833 833 834 836 837 839 840 841 840 840 839 840 842 842 844 845 846 847
794 795 797 800 801 803 804 806 806 807 809 811 813 814 815 815 817 818 819 820 823 824 825 826 826 827 828 829 831 833 834 835 836 836 835 835 835 836 838 840 842 843 844
792 794 795 796 798 801 803 803 803 803 805 806 807 809 810 812 812 814 814 816 817 818 818 820 822 823 823 824 828 830 830 831 830 830 833 831 831 832 833 835 836 838 840
792 793 795 796 796 797 798 798 800 800 800 801 802 803 805 806 808 808 809 809 812 814 814 815 815 816 817 820 822 826 830 828 825 823 824 825 826 827 827 829 831 833 835
792 793 794 794 794 794 795 796 796 797 798 798 799 800 800 802 803 804 805 805 806 807 808 810 811 810 812 814 815 818 828 824 819 816 816 818 820 820 821 823 825 827 830
792 793 794 793 793 793 793 793 794 794 794 796 797 797 797 798 797 798 799 800 801 802 801 802 804 805 806 808 811 810 809 809 814 814 811 811 814 816 818 819 821 824 826
793 794 795 794 794 793 793 793 792 792 792 792 793 793 793 792 793 793 793 794 795 795 795 794 796 797 799 802 801 803 805 806 807 808 810 806 809 810 812 814 817 821 822
794 794 795 794 794 794 793 793 792 791 790 790 790 789 789 788 788 788 788 789 789 790 790 791 792 793 793 794 794 795 796 799 803 805 807 806 804 805 806 808 804 812 819